Tracking 26951 objects as of 4-Feb-2023
HD Live streaming from Space Station
objects crossing your sky now

NOAA 16 DEB

Track NOAA 16 DEB now!
10-day predictions


NORAD ID: 41536
Int'l Code: 2000-055NL
Perigee: 821.0 km
Apogee: 846.0 km
Inclination: 98.8 °
Period: 101.4 minutes
Semi major axis: 7204 km
RCS: Unknown
Launch date: September 21, 2000
Source: United States (US)
Launch site: AIR FORCE WESTERN TEST RANGE (AFWTR)

Note: This is SATELLITE DEBRIS
Your satellite tracking list
Your tracking list is empty




NASA's NSSDC Master Catalog

Two Line Element Set (TLE):
1 41536U 00055NL  23034.44985006  .00003144  00000-0  15044-2 0  9995
2 41536  98.7644 121.1240 0017397 176.1836 183.9475 14.19705385363955
Source of the keplerian elements: AFSPC